Torna al catalogo

CZ-6A DEB

AttivoSSO
NORAD 56253·DEBRIS·🇨🇳 China

Lanciato Nov 11, 2022 da Taiyuan Satellite Launch Center

Loading…

Prossimi Passaggi (prossime 24 ore)

TLE

AggiornatoSource: Space-Track

Epoca: Sep 14, 2026, 11:27 UTC

1 56253U 22151ABV 26257.47729164  .00001381  00000-0  65397-3 0  9990
2 56253  98.8138 271.5238 0030846  45.3782 314.9903 14.21018626186485

Traccia CZ-6A DEB in tempo reale con AllMySat

Download on the App Store